Dewpoint
-17 -16 -15 -14 -15 -16 -16 -16 -16 -17 -17 -15 -12 -10 -9 -9 -13 -13 -10 -14 -9 -9 -5 -5 5 1 10 14 14 12 15 15 11 10 4 6 9 10 11 13 14 13 15 15 15
-17 -17 -18 -17 -16 -15 -15 -15 -16 -16 -16 -16 -17 -15 -12 -10 -10 -14 -19 -16 -4 -2 -1 -5 3 7 7 8 13 12 14 10 7 8 5 6 9 9 10 12 13 14 13 15 16
-20 -20 -19 -18 -18 -18 -17 -15 -15 -15 -16 -16 -16 -17 -17 -13 -12 -12 -5 -13 -4 -6 -5 -5 -4 -0 4 5 6 9 10 8 8 6 6 3 4 6 7 12 12 13 14 15 16
-19 -20 -21 -21 -20 -19 -19 -18 -17 -15 -15 -15 -16 -17 -17 -16 -5 -3 -6 -8 -8 -7 -6 -7 -6 -4 -1 2 1 7 5 4 3 6 3 3 3 5 6 10 12 12 12 15 15
-17 -18 -19 -21 -21 -21 -20 -19 -19 -18 -16 -15 -15 -16 -18 -11 -9 -8 -8 -8 -10 -12 -11 -6 -5 -4 -1 -0 0 3 3 3 2 4 5 3 4 6 7 11 12 12 12 14 15
-12 -14 -16 -17 -19 -21 -21 -20 -19 -18 -19 -17 -15 -17 -18 -4 -13 -8 -9 -6 -6 -9 -11 -4 -3 -3 -2 -1 -0 1 0 -3 1 4 5 5 4 5 8 12 13 13 12 12 11
-6 -8 -12 -14 -15 -17 -19 -21 -20 -18 -19 -19 -16 -17 -14 -14 -12 -6 -6 -6 -4 -4 -4 -3 -2 -2 -3 -1 -2 -2 -1 -3 -3 -3 4 6 10 5 7 11 12 13 13 12 12
-4 -5 -6 -9 -13 -14 -15 -18 -20 -18 -19 -19 -16 -13 -11 -11 -11 -9 -4 -4 -5 -4 -2 -3 -4 -3 -3 -4 -3 -3 -4 -2 -3 -2 1 8 12 6 6 10 11 12 12 13 12
-1 -2 -4 -6 -9 -13 -14 -17 -19 -18 -19 -17 -13 -9 2 -4 -6 -9 -7 -7 -4 -2 -2 -4 -4 -5 -7 -4 -2 -4 -2 -2 -3 -2 1 6 10 4 5 9 9 11 11 12 12
-1 -1 -2 -3 -6 -11 -14 -18 -11 -3 -2 -2 3 6 -2 -6 -4 -5 -5 -7 -7 -5 -7 -4 -4 -4 -6 -5 -0 -2 -2 -3 -2 0 6 8 8 6 5 6 8 9 10 10 11
-2 -2 -2 -2 -4 -9 -16 -10 -5 -1 5 6 3 -2 -7 -5 -4 -4 -6 -6 -8 -10 -6 -6 -3 -2 -5 -8 -6 -4 -4 -2 -3 1 9 9 8 7 5 5 6 9 9 10 10
-4 -4 -3 -3 -3 -11 -7 -5 -9 -7 -8 -10 -9 -3 2 -0 1 -4 -6 -8 -8 -7 -5 -5 -3 -4 -6 -7 -7 -5 -4 -3 -3 2 8 11 9 8 5 4 6 7 8 9 10
-9 -8 -6 -4 -4 -6 -5 -7 -7 -10 -10 -11 -12 -11 -11 -5 -2 -3 -5 -8 -7 -5 -4 -4 -4 -4 -6 -6 -5 -5 -4 -3 -1 2 6 11 11 11 5 5 6 6 7 9 9
-12 -12 -11 -7 -5 -6 -8 -5 -8 -10 -6 -8 -11 -12 -12 -11 -6 -2 -4 -6 -4 -4 -5 -5 -6 -6 -6 -7 -7 -3 -5 -4 -3 0 7 8 13 11 7 7 7 6 6 7 9
-7 -10 -12 -12 -7 -4 -6 -7 -9 -8 -0 -7 -10 -12 -13 -12 -8 -3 -3 -6 -3 -4 -7 -5 -5 -5 -7 -9 -11 -6 -5 -4 -3 -1 6 5 7 11 9 9 8 6 6 6 7
-7 -7 -7 -10 -10 -5 -5 -8 -8 -4 -0 -6 -11 -12 -12 -13 -11 -12 -4 -7 -8 -4 -4 -7 -9 -8 -7 -9 -12 -12 -7 -4 -3 -2 4 5 6 9 9 9 7 6 6 6 6
-7 -8 -8 -7 -11 -6 -6 -6 -5 -3 -6 -5 -7 -9 -11 -11 -12 -12 -10 -8 -8 -4 -4 -3 -5 -9 -9 -8 -12 -12 -9 -2 1 1 3 3 6 9 6 5 7 7 6 7 7
-4 -10 -11 -9 -8 -5 -5 -3 -1 -3 -5 -7 -7 -7 -6 -9 -10 -11 -10 -9 -10 -8 -5 -3 -1 -4 -8 -8 -10 -11 -11 -6 2 2 2 1 6 6 4 3 6 6 5 6 6
-4 -9 -14 -11 -6 -3 -1 0 -3 -3 -5 -5 -5 -5 -5 -6 -6 -9 -10 -6 -9 -10 -6 -4 -3 -5 -7 -8 -10 -8 -10 -12 -7 -3 1 0 -1 -2 4 3 4 4 4 5 4
-2 -0 -15 -4 -3 -2 -1 0 -2 -5 -4 -4 -2 -4 -4 -5 -6 -4 -7 -8 -7 -10 -10 -5 -0 -5 -6 -8 -9 -10 -10 -9 -10 -5 -0 -1 1 3 2 5 6 5 5 4 4
1 -0 -13 -6 -5 -3 -1 -1 -2 -4 -4 -3 -2 -2 -3 -4 -5 -6 -6 -6 -7 -7 -8 -8 -5 -4 -5 -5 -7 -7 -9 -10 -10 -8 -3 1 -0 -2 3 6 6 4 3 2 4
1 -0 -16 -7 -4 -3 -2 -3 -4 -4 -5 -4 -3 -2 -1 -2 -3 -4 -6 -8 -9 -8 -6 -7 -6 -4 -4 -6 -8 -9 -7 -8 -6 -3 -2 -5 -4 -4 -5 4 4 3 2 1 2
1 -1 -10 -4 -3 -3 -5 -5 -6 -7 -7 -7 -6 -6 -5 -2 -1 -3 -4 -7 -10 -10 -6 -6 -5 -3 -3 -6 -7 -7 -8 -8 -10 -6 -3 1 -3 -9 -8 2 -0 3 3 1 0
1 -1 -5 -4 -5 -5 -4 -1 0 -1 -2 -3 -2 -2 -1 -0 -2 -0 -1 -5 -8 -11 -3 2 -5 -5 -3 -3 -3 -1 -6 -7 -8 -6 -7 -7 -8 -8 0 4 -1 -2 0 -0 2
1 0 -3 -0 -0 -1 -2 2 -0 -2 -3 -2 0 2 3 3 4 3 3 2 1 -0 -2 -4 -1 -4 -5 -5 -4 -5 -3 -6 -6 -9 -4 -7 -7 -7 -4 6 5 1 -0 0 -1
1 -0 -0 1 -1 -1 -3 -4 -6 -3 -2 -0 0 2 2 5 5 5 2 3 3 1 1 -1 3 1 -1 -5 -6 -6 -4 -3 -7 -7 -6 -5 -5 -5 -3 2 4 3 2 -2 -2
0 1 2 1 -2 -2 -2 -3 -1 -1 0 -0 -2 -1 1 0 1 2 1 0 1 2 2 1 2 3 1 -0 -0 -2 -5 -3 -2 -5 -5 -4 -7 -5 -4 -1 3 4 1 -2 -2
Wind_Speed
18 18 18 18 18 18 18 18 17 16 17 19 19 19 20 22 22 25 30 23 16 15 14 7 8 12 13 18 22 10 4 4 5 3 6 19 20 30 32 43 31 7 38 39 38
19 19 19 20 20 19 19 19 18 18 17 17 18 18 20 22 25 30 26 19 19 12 17 18 16 10 18 14 19 9 5 13 13 6 4 24 31 24 24 25 13 35 33 38 40
19 19 20 20 20 20 20 20 19 19 19 18 18 18 18 20 25 14 8 13 21 16 18 15 15 20 24 25 20 12 7 9 20 20 12 15 20 26 21 10 31 36 41 43 42
21 20 20 20 21 21 22 21 21 21 20 19 19 18 17 14 6 3 6 2 10 16 23 22 20 22 13 14 26 7 17 13 5 22 14 7 24 16 24 28 40 43 41 48 44
23 22 22 21 21 21 22 23 22 22 21 20 19 17 16 10 28 12 10 9 9 10 20 26 23 22 13 16 22 12 14 25 24 24 21 20 5 23 22 42 43 38 36 42 43
25 24 23 23 23 22 21 21 22 23 21 21 20 17 14 12 17 8 19 22 19 16 15 23 16 24 18 20 15 25 21 14 26 28 24 24 12 19 35 43 43 40 35 32 34
26 26 25 25 25 25 24 23 21 21 20 20 20 18 18 36 10 12 13 16 14 19 17 22 26 24 19 13 30 25 14 15 6 4 8 33 12 17 36 42 41 39 36 31 30
28 27 26 25 25 26 26 24 23 21 19 18 17 16 17 26 15 19 18 24 16 15 17 17 18 26 24 20 23 12 8 6 8 10 15 20 25 13 33 39 36 37 36 34 33
33 31 29 26 25 25 25 22 21 19 18 17 11 10 17 12 17 27 22 19 18 19 20 14 20 25 18 8 7 7 9 11 15 7 10 9 10 14 32 35 33 36 36 35 35
31 32 31 28 25 25 24 18 15 16 11 8 10 6 22 19 17 17 21 23 22 18 20 21 19 7 9 6 10 8 8 13 14 9 9 11 11 14 16 15 32 35 36 37 38
32 32 31 29 23 22 20 15 14 5 3 10 10 15 29 17 14 19 22 26 22 24 11 22 8 16 13 14 11 14 15 16 19 9 7 5 14 10 20 15 16 34 36 39 41
31 32 32 28 22 13 11 11 13 19 17 22 36 40 40 24 16 22 27 23 20 14 11 10 18 12 12 11 18 20 19 20 14 12 12 13 16 14 11 20 22 31 36 41 42
29 30 31 29 16 5 9 16 15 18 10 23 37 34 44 38 36 25 29 31 15 17 16 17 9 16 18 17 18 21 20 16 10 9 9 10 3 4 14 11 26 32 41 42 46
27 27 28 32 7 8 5 10 7 17 5 8 9 14 26 35 17 37 34 28 12 18 18 14 17 18 22 21 19 18 22 20 19 10 14 15 7 9 15 14 15 28 36 41 43
28 26 25 20 25 19 15 10 12 13 6 6 9 7 18 29 13 33 36 34 18 17 10 19 18 20 21 23 19 21 13 19 21 15 9 12 4 10 19 18 21 22 38 41 45
28 26 27 23 21 12 10 5 11 2 9 7 10 8 13 24 23 4 40 36 22 15 17 18 18 19 20 16 21 16 14 17 17 12 10 15 16 6 14 28 22 23 32 42 43
29 27 24 25 21 11 11 5 2 7 8 8 5 11 17 13 22 24 19 25 21 17 21 19 22 19 20 18 14 19 8 12 12 11 9 12 13 9 21 16 26 24 30 35 42
34 28 24 23 22 5 1 3 10 8 13 19 12 12 14 13 19 25 21 24 25 20 8 15 18 23 13 20 15 16 16 12 13 14 9 9 12 13 18 17 35 40 31 42 39
36 30 25 15 11 9 13 9 6 8 9 14 20 10 15 16 14 19 23 20 23 26 20 15 18 8 24 20 18 11 21 14 5 8 6 8 9 11 15 19 16 25 31 38 38
33 31 23 10 11 23 10 14 9 14 24 17 9 11 10 16 15 16 21 20 21 25 24 10 7 20 21 22 17 19 6 11 14 15 19 16 10 12 8 18 14 12 20 32 33
24 14 8 13 15 23 14 10 16 27 30 14 18 24 24 24 18 22 14 23 23 25 27 25 17 18 15 19 23 12 17 12 7 13 12 10 16 8 10 16 16 18 32 37 51
12 5 11 20 10 12 13 18 29 25 31 24 17 23 26 25 28 24 24 20 20 27 24 24 15 16 25 17 24 24 13 11 9 6 4 8 15 9 13 7 25 31 36 37 26
13 21 19 11 5 9 13 21 23 22 20 21 22 24 21 25 22 21 25 29 30 21 24 16 19 11 17 17 19 26 19 14 15 5 12 5 14 18 17 3 6 4 14 29 26
8 5 11 21 14 14 15 12 14 20 18 23 18 19 17 20 16 17 24 21 29 23 24 12 19 27 19 19 5 9 22 20 17 13 16 22 14 18 5 7 14 25 30 18 32
5 6 15 8 15 19 15 6 18 13 14 18 11 18 22 14 23 12 14 21 21 27 14 5 19 20 26 19 14 24 14 25 22 21 16 13 16 14 10 9 9 23 25 28 12
6 6 8 17 21 17 15 14 16 14 11 14 10 14 17 10 16 20 19 17 11 15 19 12 8 12 17 26 25 26 19 20 25 22 19 17 19 6 7 26 18 21 26 29 18
10 13 9 7 9 11 11 17 20 3 8 14 16 14 18 17 12 25 29 30 23 24 22 10 5 3 8 7 5 20 28 18 11 17 18 17 18 7 9 6 8 11 12 11 18
Wind_Direction
327 325 322 320 316 313 312 311 310 309 304 304 303 303 302 299 293 286 273 258 241 240 244 248 262 199 210 189 171 166 119 285 293 278 147 104 108 124 129 133 143 197 153 155 156
330 327 324 320 316 313 311 310 309 307 305 303 302 303 304 304 301 287 279 262 204 203 236 243 221 217 220 218 177 166 174 191 189 219 255 129 133 139 141 130 132 132 149 151 156
334 330 327 322 318 313 311 308 306 306 305 304 301 302 304 308 312 288 318 202 197 208 235 238 239 244 234 239 202 216 221 170 209 257 236 147 129 136 135 135 148 143 157 157 159
333 331 328 323 319 317 313 308 306 304 303 302 301 301 300 301 291 276 19 96 205 232 233 232 242 255 253 256 249 184 246 218 190 196 176 130 140 143 164 155 151 146 153 160 164
335 333 329 322 318 315 314 310 306 301 299 298 297 298 298 272 256 219 265 254 227 233 230 220 227 238 236 254 262 246 235 237 231 179 196 152 200 166 150 142 145 148 159 162 170
331 331 329 326 320 315 311 307 306 302 299 295 292 293 280 250 287 260 244 240 245 244 242 211 224 226 245 256 264 270 289 276 238 176 173 143 180 126 141 145 146 152 166 171 178
331 327 326 326 324 319 313 308 302 297 296 291 291 287 259 253 262 293 234 242 248 221 233 218 225 249 246 264 270 283 290 291 236 186 163 94 8 144 149 146 150 155 165 181 186
330 329 326 324 322 320 314 311 304 296 290 285 283 278 256 277 273 215 210 235 236 216 230 225 228 245 263 271 282 279 293 290 264 198 155 107 196 219 151 147 153 158 167 183 190
330 327 326 325 324 321 315 314 303 297 284 280 276 246 270 298 238 204 217 221 220 226 221 228 227 233 249 255 291 281 258 269 260 189 156 110 157 173 159 154 158 163 171 183 192
328 325 324 324 325 324 320 320 319 301 283 262 193 289 254 249 227 220 207 211 218 224 235 231 232 231 217 209 225 239 247 255 254 192 104 122 177 153 168 152 162 166 174 182 192
336 332 325 322 326 326 325 352 354 351 254 239 220 218 273 283 223 200 202 211 208 228 216 216 212 223 217 217 231 246 247 250 250 176 93 124 172 199 187 196 206 171 175 181 191
336 334 330 326 327 325 315 319 309 318 292 268 256 250 253 253 278 232 196 189 202 220 206 220 223 220 233 220 222 245 254 265 295 166 115 176 187 215 222 206 197 184 179 182 187
336 336 332 331 322 283 298 338 342 321 284 283 248 239 231 238 245 225 192 187 192 214 214 220 226 214 231 228 224 228 242 258 244 246 120 158 281 235 252 187 205 197 184 186 187
338 336 334 333 321 281 290 331 322 340 287 268 209 244 224 218 243 234 202 209 214 211 227 224 225 219 219 232 225 227 231 248 257 247 207 175 214 223 219 198 212 207 187 188 189
336 335 331 341 311 308 307 295 358 331 302 243 194 187 192 181 148 223 214 203 206 212 190 225 214 228 226 223 231 235 228 236 253 256 158 230 224 206 194 208 225 190 192 191 190
328 329 326 326 291 331 316 8 340 250 244 274 147 161 141 201 228 295 207 225 226 219 224 236 221 229 234 239 221 243 230 249 253 253 225 205 211 248 187 198 203 194 192 190 193
322 318 314 305 294 286 291 341 199 228 270 232 186 168 191 180 210 235 212 211 212 205 222 232 232 244 220 235 225 219 216 238 249 241 237 204 204 204 237 209 195 195 197 189 191
326 321 309 292 292 245 341 277 234 235 223 298 312 290 209 207 204 212 232 200 212 226 197 218 237 227 222 221 222 211 213 223 221 230 250 244 205 224 208 210 186 186 197 189 198
326 327 310 310 253 231 236 225 208 204 278 357 337 313 268 205 208 208 224 206 205 209 220 206 233 232 227 238 213 231 215 222 266 257 263 236 267 261 205 222 190 179 180 187 214
330 332 312 310 250 216 224 238 261 296 322 333 313 286 317 320 324 206 212 221 206 203 213 248 251 219 240 223 236 209 191 203 223 231 245 251 245 241 230 204 174 182 198 206 201
331 317 337 341 232 209 230 239 261 272 284 294 293 284 287 295 293 289 288 223 216 201 203 216 240 253 227 218 214 226 219 226 194 221 234 240 249 247 232 179 176 196 199 196 202
317 289 321 302 321 226 245 254 262 265 270 277 275 281 285 290 290 285 278 266 267 206 209 201 213 237 249 257 208 216 206 203 223 263 253 237 256 261 242 177 193 191 192 199 189
311 293 305 305 254 265 278 272 270 272 276 286 292 288 285 275 283 272 283 286 282 295 219 200 212 220 248 261 253 210 210 200 219 168 235 192 251 251 256 151 103 171 214 209 225
304 310 306 336 274 279 285 308 325 319 318 325 318 326 333 302 283 289 296 288 292 275 285 316 208 211 222 233 235 224 206 202 198 219 236 242 259 271 282 219 181 210 230 203 239
278 265 309 306 321 327 311 231 292 299 330 349 332 351 333 318 316 310 345 334 322 316 314 310 245 207 214 221 224 240 233 204 205 210 206 235 230 242 236 218 212 192 194 224 231
266 309 323 301 305 314 304 291 305 345 333 315 305 333 327 323 292 316 330 325 299 333 341 328 282 190 206 211 219 241 241 237 209 216 228 232 251 218 229 214 207 210 194 194 225
268 281 299 293 300 298 301 322 316 13 307 313 315 317 310 301 304 283 285 279 266 279 288 280 349 264 206 175 233 236 231 245 245 216 202 214 235 222 263 224 184 214 202 185 222
Height
1520 1518 1515 1513 1511 1508 1506 1504 1502 1501 1499 1497 1495 1494 1491 1488 1486 1482 1477 1479 1481 1484 1487 1490 1492 1496 1501 1508 1506 1508 1523 1522 1498 1490 1479 1476 1482 1488 1492 1495 1508 1506 1511 1521 1528
1518 1516 1513 1511 1508 1506 1503 1501 1499 1497 1496 1494 1492 1490 1488 1484 1480 1474 1469 1473 1476 1478 1482 1485 1490 1492 1495 1497 1500 1499 1507 1497 1480 1478 1477 1476 1479 1486 1493 1499 1505 1509 1518 1524 1528
1516 1514 1511 1508 1505 1503 1500 1498 1496 1494 1492 1490 1488 1486 1485 1482 1478 1465 1464 1466 1471 1474 1478 1482 1486 1490 1487 1486 1488 1486 1491 1478 1480 1473 1477 1475 1478 1482 1488 1497 1500 1506 1516 1523 1527
1514 1511 1508 1506 1502 1499 1497 1495 1492 1490 1488 1487 1485 1483 1482 1482 1481 1465 1465 1466 1469 1472 1475 1478 1481 1484 1484 1480 1474 1480 1471 1468 1467 1469 1470 1473 1476 1482 1484 1491 1498 1504 1511 1518 1525
1512 1509 1506 1503 1500 1497 1494 1491 1489 1486 1484 1482 1481 1480 1479 1478 1464 1465 1465 1467 1468 1469 1469 1473 1477 1478 1480 1472 1470 1470 1465 1461 1460 1465 1468 1466 1473 1479 1483 1487 1496 1506 1513 1517 1522
1510 1507 1503 1500 1496 1493 1490 1487 1484 1482 1480 1478 1477 1476 1476 1472 1457 1459 1460 1463 1464 1465 1466 1469 1471 1473 1472 1468 1467 1460 1459 1457 1455 1462 1464 1465 1471 1477 1485 1490 1496 1503 1512 1516 1519
1509 1505 1500 1497 1493 1489 1485 1482 1479 1476 1475 1474 1473 1471 1469 1450 1455 1456 1457 1458 1461 1462 1463 1466 1468 1472 1470 1468 1463 1461 1463 1454 1451 1454 1461 1464 1492 1480 1483 1488 1494 1501 1509 1516 1518
1506 1503 1498 1494 1489 1485 1480 1477 1474 1472 1470 1469 1468 1466 1455 1446 1450 1451 1453 1456 1458 1459 1462 1464 1467 1467 1468 1467 1462 1464 1462 1475 1451 1449 1456 1462 1503 1488 1481 1485 1492 1498 1505 1513 1517
1502 1498 1494 1490 1486 1480 1475 1472 1468 1466 1465 1464 1465 1464 1449 1442 1440 1442 1449 1452 1455 1457 1459 1462 1463 1464 1465 1470 1478 1467 1484 1473 1459 1442 1450 1459 1488 1472 1477 1480 1487 1493 1501 1508 1514
1499 1494 1489 1486 1482 1477 1471 1467 1464 1460 1460 1460 1462 1467 1443 1435 1436 1438 1444 1449 1452 1455 1457 1458 1459 1462 1463 1471 1493 1483 1476 1465 1462 1446 1451 1465 1472 1468 1474 1479 1480 1487 1494 1502 1508
1496 1491 1486 1482 1479 1476 1469 1465 1466 1461 1459 1455 1450 1442 1431 1434 1435 1435 1439 1445 1449 1451 1454 1453 1462 1462 1461 1459 1460 1461 1462 1461 1445 1439 1457 1464 1467 1465 1465 1472 1478 1479 1485 1493 1500
1493 1488 1483 1479 1476 1474 1471 1469 1468 1470 1450 1445 1437 1436 1431 1431 1435 1430 1434 1439 1442 1448 1447 1453 1454 1450 1450 1451 1456 1456 1460 1457 1445 1432 1447 1464 1464 1459 1458 1460 1467 1474 1477 1483 1491
1491 1486 1480 1475 1472 1472 1469 1470 1467 1466 1455 1425 1418 1417 1416 1426 1425 1424 1428 1431 1435 1441 1440 1449 1443 1445 1446 1448 1452 1453 1457 1452 1457 1441 1441 1464 1472 1470 1459 1457 1464 1470 1470 1477 1480
1490 1485 1479 1473 1472 1468 1467 1465 1464 1466 1462 1419 1403 1395 1405 1417 1416 1416 1419 1425 1427 1433 1435 1438 1436 1438 1441 1443 1443 1457 1436 1441 1445 1452 1474 1452 1488 1473 1459 1456 1457 1463 1465 1469 1474
1488 1484 1480 1478 1471 1469 1467 1465 1463 1463 1480 1392 1387 1387 1387 1400 1402 1404 1411 1416 1419 1424 1428 1429 1429 1432 1435 1435 1433 1436 1434 1437 1437 1445 1448 1450 1469 1462 1451 1459 1454 1452 1456 1460 1466
1485 1481 1477 1475 1471 1467 1463 1462 1464 1471 1464 1398 1377 1383 1391 1400 1398 1394 1404 1410 1414 1417 1417 1417 1416 1419 1422 1422 1422 1425 1433 1434 1435 1441 1467 1450 1461 1462 1450 1443 1441 1439 1445 1450 1459
1481 1477 1475 1471 1466 1467 1466 1464 1471 1465 1406 1392 1384 1379 1383 1390 1395 1396 1404 1409 1414 1427 1425 1415 1412 1410 1411 1421 1418 1422 1443 1465 1473 1466 1469 1439 1449 1446 1425 1425 1423 1429 1438 1444 1452
1477 1472 1468 1464 1461 1464 1465 1466 1467 1419 1415 1379 1389 1384 1387 1381 1384 1389 1394 1402 1400 1407 1420 1430 1434 1405 1399 1407 1419 1419 1430 1452 1483 1469 1459 1432 1445 1429 1406 1404 1409 1417 1427 1436 1439
1471 1466 1460 1454 1455 1461 1466 1462 1433 1422 1410 1414 1399 1392 1382 1375 1377 1383 1385 1389 1389 1396 1417 1419 1417 1392 1393 1393 1401 1418 1420 1415 1448 1441 1458 1434 1421 1403 1398 1398 1404 1411 1416 1426 1430
1469 1461 1451 1451 1454 1458 1457 1444 1429 1418 1416 1427 1436 1411 1408 1404 1407 1377 1380 1373 1379 1382 1393 1398 1419 1391 1387 1389 1390 1396 1402 1434 1424 1464 1464 1437 1434 1426 1405 1398 1401 1405 1410 1413 1420
1470 1465 1448 1450 1450 1448 1442 1439 1435 1430 1427 1425 1423 1417 1412 1404 1405 1399 1391 1362 1363 1371 1378 1388 1400 1395 1384 1386 1395 1398 1402 1408 1416 1424 1447 1457 1427 1395 1394 1391 1395 1399 1400 1399 1406
1472 1466 1446 1446 1449 1437 1437 1436 1437 1429 1428 1419 1415 1413 1411 1406 1397 1395 1387 1377 1360 1356 1368 1371 1387 1401 1386 1371 1367 1375 1389 1402 1427 1441 1430 1432 1420 1380 1383 1384 1374 1377 1386 1391 1397
1472 1463 1443 1446 1445 1439 1432 1427 1426 1424 1421 1418 1410 1407 1402 1397 1402 1383 1376 1362 1362 1364 1352 1357 1371 1401 1392 1376 1366 1369 1373 1383 1391 1413 1428 1446 1410 1378 1377 1382 1383 1387 1393 1393 1394
1476 1463 1449 1442 1440 1439 1435 1433 1434 1427 1422 1419 1415 1410 1404 1395 1390 1377 1376 1361 1356 1350 1349 1357 1345 1358 1378 1373 1369 1374 1367 1370 1386 1405 1405 1402 1404 1389 1378 1379 1371 1383 1385 1389 1396
1476 1467 1461 1454 1442 1446 1444 1448 1433 1427 1423 1426 1416 1422 1422 1414 1404 1390 1386 1379 1362 1355 1346 1350 1348 1336 1343 1351 1354 1358 1360 1360 1373 1377 1400 1393 1397 1385 1380 1378 1373 1372 1376 1386 1389
1474 1468 1464 1460 1452 1446 1438 1432 1425 1423 1425 1424 1428 1424 1424 1424 1420 1413 1406 1404 1392 1369 1373 1357 1350 1332 1340 1337 1344 1353 1348 1351 1354 1362 1371 1376 1378 1367 1369 1369 1370 1370 1372 1375 1383
1469 1468 1466 1459 1452 1445 1439 1434 1433 1430 1429 1427 1423 1421 1421 1417 1414 1410 1406 1399 1394 1388 1385 1374 1361 1348 1351 1336 1348 1364 1339 1348 1348 1345 1355 1372 1360 1364 1367 1368 1368 1371 1370 1369 1379